Find Aerocube 18B

NORAD ID: 63222 Int'l Des: 2025-052 Owner: AERO Country: US operational
LEOCIRCULARRETROGRADESSO

Live Position

Loading 3D Globe...

About Aerocube 18B

Description loading...

Upcoming Passes

Passes for default location (London). Set your location on the main map for personalized predictions.

Altitude History

Loading altitude history...

Two-Line Element Set

1 63222U 25052N 26104.63166037 .00003454 00000-0 14714-3 0 9990
2 63222 97.4051 358.9221 0004695 16.2756 343.8631 15.23629984 60210
Epoch: Apr 14, 2026 • Age: 12 hours

Current Status

Altitude 504.4 km
Velocity 7.62 km/s
Sub-Earth Point 50.70°N, 56.14°W
Launch Date Mar 15, 2025
Age 1 years
Type other

Technical Details

Classification Payload
Mass 10.00 kg
Dry Mass 10.00 kg
Total Mass 10.00 kg
Length 0.40 m
Diameter 0.10 m
Span 0.40 m
Shape Box + 2 pan
Manufacturer AERO
Bus Type Cubesat 6U
Phase Status In Orbit
Owner/State AERO/US

Most Searched